Weather in El-Aaiún

Sahrawi Arab Democratic Republic     27°08′59″N   13°12′11″W
temp.,
°C
wind,
m/s
gust,
m/s
humid.,
%
clouds,
%
prec.,
mm/h
press.,
hPa
HPBL,
m
26 february, fri
fri2601:00+16nne9127417 0.0 1026785
04:00+15nne8126814 0.0 1025725
07:00+14nne58757 0.0 1024266
10:00+16n796211 0.0 10251246
13:00+19n910517 0.0 10251489
16:00+19n1011470 0.0 10221393
19:00+17n1011540 0.0 10221346
22:00+16nne811650 0.0 10231136
27 february, sat
sat2701:00+15nne711680 0.0 1023765
04:00+15nne611694 0.0 1022464
07:00+14nne610733 0.1 1021331
10:00+15nne89640 0.1 10211049
13:00+17n88540 0.1 10211133
16:00+18nnw87490 0.0 10181170
19:00+17n78540 0.0 10171068
22:00+16nnw67620 0.0 1018624
28 february, sun
sun2801:00+15nnw45690 0.0 1017188
04:00+15nw45770 0.0 1015139
07:00+15nnw45820 0.0 1014105
10:00+16nne45760 0.1 1015472
13:00+18n44579 0.2 10161111
16:00+19nnw66534 0.0 10141134
19:00+18nnw56572 0.0 1014910
22:00+17n45640 0.0 1016619
1 march, mon
mon101:00+16n12715 0.0 101680
04:00+15ene017632 0.0 101547
07:00+14e018233 0.0 101565
10:00+16n257334 0.0 1017574
13:00+19n555630 0.0 10181139
16:00+20nnw775513 0.0 10161144
19:00+19n78617 0.0 10171006
22:00+17n68710 0.0 1019782
2 march, tue
tue201:00+17nne47770 0.0 1019386
04:00+16nne46814 0.0 1019183
07:00+15nne45842 0.0 1018135
10:00+17nne68710 0.0 1020863
13:00+20nne665414 0.0 10211194
16:00+21n99540 0.0 10181031
19:00+19n89630 0.0 1018805
22:00+17nne687314 0.0 1020623